Date,TemperatureHighF,TemperatureAvgF,TemperatureLowF,DewpointHighF,DewpointAvgF,DewpointLowF,HumidityHigh,HumidityAvg,HumidityLow,PressureMaxIn,PressureMinIn,WindSpeedMaxMPH,WindSpeedAvgMPH,GustSpeedMaxMPH,PrecipitationSumIn
2013-12-1,70,63,55,57,39,20,65,43,24,31.05,30.75,14,4,0,0.00
2013-12-2,77,66,58,60,37,17,67,38,19,30.75,30.45,10,3,0,0.00
2013-12-3,75,66,58,61,32,14,62,32,16,30.50,30.39,14,6,0,0.08
2013-12-4,78,71,67,61,35,19,57,29,15,30.59,30.48,17,8,0,0.00
2013-12-5,73,50,36,36,25,14,63,42,15,30.91,30.57,15,6,0,0.00
2013-12-6,39,36,31,23,13,6,59,41,29,31.29,30.86,13,6,0,0.08
2013-12-7,34,32,30,20,14,6,63,49,32,31.31,31.18,15,4,0,0.01
2013-12-8,43,38,32,21,9,4,43,31,25,31.17,30.94,7,1,0,0.01
2013-12-9,43,41,36,10,7,4,34,24,22,31.22,30.94,12,4,0,0.04
2013-12-10,44,35,29,30,21,11,72,58,37,31.36,31.21,12,3,0,0.00
2013-12-11,50,40,29,39,25,6,71,55,36,31.41,31.23,7,1,0,0.00
2013-12-12,52,41,31,36,26,8,72,57,33,31.45,31.23,5,1,0,0.00
2013-12-13,53,48,43,42,28,10,72,51,21,31.22,30.69,6,1,0,0.12
2013-12-14,54,46,36,38,21,6,69,41,16,31.15,30.70,14,4,0,0.01
2013-12-15,55,40,28,37,23,5,71,52,34,31.27,31.14,5,1,0,0.00
2013-12-16,63,46,31,43,28,6,71,52,31,31.20,31.07,12,2,0,0.00
2013-12-17,70,50,34,47,34,8,71,57,26,31.19,31.07,6,1,0,0.00
2013-12-18,68,54,37,53,36,9,68,51,21,31.16,30.93,11,3,0,0.00
2013-12-19,76,65,55,64,38,23,68,40,18,30.92,30.65,22,7,0,0.01
2013-12-20,76,72,68,56,33,18,51,26,14,30.68,30.47,15,8,0,0.00
2013-12-21,74,62,47,41,18,1,39,19,8,30.65,30.34,27,6,0,1.03
2013-12-22,51,47,35,40,18,-2,69,40,11,31.21,30.62,13,3,0,0.00
2013-12-23,50,38,31,35,24,10,70,57,39,31.42,31.21,11,3,0,0.00
2013-12-24,58,41,28,37,24,3,70,51,29,31.44,31.19,9,2,0,0.00
2013-12-25,54,47,37,44,26,4,69,48,15,31.23,31.14,12,2,0,0.08
2013-12-26,57,48,41,46,19,1,67,36,15,31.28,31.15,5,1,0,0.01
2013-12-27,57,49,43,44,30,11,68,50,27,31.29,31.18,6,1,0,0.00
2013-12-28,58,47,40,40,28,11,70,50,28,31.18,30.88,4,0,0,0.00
2013-12-29,63,49,37,49,38,19,70,65,43,31.07,30.82,12,2,0,0.00
2013-12-30,42,38,35,33,29,26,80,70,66,31.29,31.06,11,4,0,0.00
2013-12-31,47,40,36,36,30,14,72,66,34,31.35,31.14,4,1,0,0.00